This is the latest recevied weather packets stored in our database for station/object KA1BMF-13. If no packets are shown the sender has not sent any weather packets the latest 10 day(s).
| Time | Temp. | Humidity | Pressure | Rain* | Wind** | Luminosity | Snow |
|---|---|---|---|---|---|---|---|
| 1787847320 | 25° C | 81% | 1017.2 hPa | 0 mm | - | 570 W/m² | - |
| 1787846720 | 24.44° C | 82% | 1017.6 hPa | 0 mm | - | 474 W/m² | - |
| 1787846127 | 24.44° C | 83% | 1017.6 hPa | 0 mm | - | 337 W/m² | - |
| 1787845528 | 24.44° C | 84% | 1017.5 hPa | 0 mm | - | 285 W/m² | - |
| 1787844928 | 24.44° C | 86% | 1017.6 hPa | 0 mm | - | 369 W/m² | - |
| 1787844328 | 23.89° C | 87% | 1017.7 hPa | 0 mm | - | 295 W/m² | - |
| 1787843728 | 23.89° C | 88% | 1017.7 hPa | 0 mm | - | 280 W/m² | - |
| 1787843128 | 23.89° C | 89% | 1017.8 hPa | 0 mm | - | 232 W/m² | - |
| 1787842528 | 23.33° C | 88% | 1017.8 hPa | 0 mm | - | 145 W/m² | - |
| 1787841929 | 23.33° C | 88% | 1017.8 hPa | 0 mm | - | 98 W/m² | - |
| 1787841329 | 23.33° C | 87% | 1017.4 hPa | 0 mm | - | 104 W/m² | - |
| 1787840729 | 23.33° C | 87% | 1017.5 hPa | 0 mm | - | 133 W/m² | - |
| 1787840129 | 23.33° C | 87% | 1017.8 hPa | 0 mm | - | 88 W/m² | - |
| 1787839529 | 23.89° C | 86% | 1017.8 hPa | 0 mm | - | 109 W/m² | - |
| 1787838929 | 23.89° C | 86% | 1017.8 hPa | 0 mm | - | 192 W/m² | - |
| 1787838330 | 23.89° C | 85% | 1017.7 hPa | 0 mm | - | 212 W/m² | - |
| 1787837717 | 23.89° C | 85% | 1017.6 hPa | 0 mm | - | 196 W/m² | - |
| 1787837117 | 23.33° C | 87% | 1017.7 hPa | 0 mm | - | 228 W/m² | - |
| 1787836518 | 23.33° C | 89% | 1017.7 hPa | 0 mm | - | 188 W/m² | - |
| 1787835918 | 23.33° C | 90% | 1017.7 hPa | 0 mm | - | 192 W/m² | - |
| 1787835318 | 22.78° C | 93% | 1017.7 hPa | 0 mm | - | 220 W/m² | - |
| 1787834718 | 22.22° C | 96% | 1017.7 hPa | 0 mm | - | 197 W/m² | - |
| 1787834119 | 21.67° C | 97% | 1017.9 hPa | 0 mm | - | 127 W/m² | - |
| 1787833518 | 21.67° C | 98% | 1017.8 hPa | 0 mm | - | 125 W/m² | - |
| 1787832919 | 21.11° C | 99% | 1017.8 hPa | 0 mm | - | 128 W/m² | - |
* Rain latest hour (hover to see other rain measurements)
** Current wind speed in m/s (hover to see current wind gust speed)